Flag for U.S.A. Weather past 2 weeks in Wright, Florida, U.S.A.

Now
74 °F

Low clouds.


Feels Like: 75 °F
Forecast: 72 / 78 °F
Wind: 8 mph from South

Location: Hurlburt Field

Current Time: Apr 19, 2015 at 5:34:45 AM

Latest Report: Apr 19, 2015 at 4:58 AM


Visibility: 10 mi

Pressure: 29.80 "Hg

Humidity: 79%

Dew point: 67 °F

Location of WrightLocation

Historic Weather in Wright — Graph

°F

Wright temperature yesterday

Maximum temperature yesterday: 77 °F (at 11:58 AM)
Minimum temperature yesterday: 70 °F (at 12:58 AM)
Average temperature yesterday: 73 °F

Past Weeks' High & Low Weather Summary

 TemperatureHumidityPressure
High81 °F (Apr 10, 11:48 AM)88% (Apr 6, 5:55 AM)30.19 "Hg (Apr 6, 5:55 AM)
Low53 °F (Apr 5, 5:58 AM)26% (Apr 4, 4:58 PM)29.78 "Hg (Apr 19, 1:56 AM)
Average72 °F75%30.06 "Hg
* Reported Apr 4 3:58 AM — Apr 19 3:58 AM, Wright, Weather by CustomWeather, © 2015

Note: Actual official high and low records may vary slightly from our data, if they occured in-between our weather recording intervals... More about our weather records

Advertising

Wright weather history for previous 24 hours

 ConditionsComfort  
Time TempWeatherWind HumidityBarometerVisibility
3:58 AM
Sun, Apr 19
74 °FMostly cloudy.9 mph77%29.81 "Hg10 mi
2:59 AM73 °FFog.7 mph74%29.80 "Hg6 mi
1:56 AM73 °FPassing clouds.9 mph78%29.78 "Hg10 mi
11:59 PM
Sat, Apr 18
73 °FLight rain. Overcast.9 mph74%29.87 "Hg4 mi
10:58 PM73 °FLight rain. Mostly cloudy.6 mph76%29.91 "Hg4 mi
9:59 PM73 °FLight rain. Passing clouds.5 mph78%29.93 "Hg10 mi
8:58 PM73 °FPassing clouds.5 mph76%29.89 "Hg10 mi
7:58 PM74 °FMostly cloudy.5 mph77%29.89 "Hg10 mi
6:58 PM74 °FLight rain. Broken clouds.2 mph76%29.90 "Hg6 mi
5:58 PM74 °FBroken clouds.5 mph75%29.86 "Hg10 mi
4:58 PM75 °FBroken clouds.8 mph76%29.88 "Hg10 mi
3:58 PM75 °FBroken clouds.10 mph74%29.86 "Hg10 mi
2:58 PM74 °FDrizzle. Cloudy.8 mph74%29.89 "Hg7 mi
1:55 PM75 °FBroken clouds.8 mph74%29.93 "Hg10 mi
12:58 PM75 °FBroken clouds.8 mph70%29.93 "Hg10 mi
11:58 AM77 °FBroken clouds.7 mph63%29.96 "Hg10 mi
11:03 AM75 °FPartly sunny.6 mph74%29.97 "Hg10 mi
10:58 AM74 °FCloudy.5 mph75%29.97 "Hg10 mi
9:58 AM74 °FCloudy.6 mph76%29.97 "Hg10 mi
8:58 AM72 °FLight rain. Broken clouds.No wind80%29.97 "Hg6 mi
7:58 AM71 °FLight rain. Mostly cloudy.3 mph79%29.93 "Hg6 mi
6:58 AM72 °FOvercast.2 mph78%29.93 "Hg10 mi
5:58 AM72 °FMostly cloudy.2 mph77%29.93 "Hg9 mi
5:03 AM72 °FMostly cloudy.1 mph83%29.90 "Hg10 mi
Weather by CustomWeather, © 2015

See weather overviewHow to use our weather pages